Weather Roundup
Issued by NWS

Home | Current Version | Previous Version | Text Only | Print | Product List | Glossary On
Versions: 1 2 3 4 5 6 7 8 9 10 11 12 13 14 15 16 17 18 19 20 21 22 23 24 25 26 27 28 29 30 31 32 33 34 35 36 37 38 39 40 41 42 43 44 45 46 47 48 49 50
000
NZUS93 KARX 040910
HRRWXR

CURRENT HOURLY OBSERVATIONS ACROSS
MUCH OF THE UPPER MISSISSIPPI VALLEY
NATIONAL WEATHER SERVICE LA CROSSE WI
400 AM CDT SAT JUL 04 2015


...SOUTHEAST MINNESOTA...


CITY           SKY/WX    TMP DP  RH WIND       PRES   REMARKS
ROCHESTER      CLEAR     58  54  86 SW7       29.97S
ROCHESTER/MAYO FAIR      64  55  75 CALM      29.95S
WINONA         MOCLDY    61  59  94 CALM      29.94S
AUSTIN         CLEAR     59  55  88 CALM      29.96S
ALBERT LEA     CLEAR     61  57  88 CALM      29.97R
DODGE CENTER   CLEAR     61  55  82 SW6       29.96R
PRESTON        CLEAR     60  53  77 SW3       29.97R
OWATONNA       CLEAR     63  55  77 S3        29.95S
FARIBAULT      CLEAR     59  57  94 CALM      29.95S
$$

...ELSEWHERE IN MINNESOTA...


CITY           SKY/WX    TMP DP  RH WIND       PRES   REMARKS
MINNEAPOLIS    MOCLDY    67  60  78 S3        29.93S
INTNL FALLS    CLEAR     48  47  96 CALM      29.93F
DULUTH         CLEAR     60  53  77 E3        29.95R
RED WING       CLEAR     61  57  88 CALM      29.92S
REDWOOD FALLS  PTCLDY    66  63  90 SW3       29.94R
MANKATO        CLEAR     63  57  82 SW5       29.95R
WORTHINGTON    CLEAR     64  55  72 SW8       29.98S
FAIRMONT       CLEAR     63  54  72 CALM      29.96S
$$

...SOUTHWEST WISCONSIN...


CITY           SKY/WX    TMP DP  RH WIND       PRES   REMARKS
LA CROSSE      MOCLDY    63  61  93 S7        29.94S
PRAIRIE DU CHI CLEAR     57  55  94 CALM      29.96S
BOSCOBEL       MOCLDY    55  54  96 CALM      29.96S
LONE ROCK      CLOUDY    54  52  93 CALM      29.97R
PLATTEVILLE    CLEAR     59  55  87 S3        29.97S
FORT MC COY    CLOUDY    53  51  93 CALM      29.95S
CAMP DOUGLAS   CLEAR     54  54 100 E1        29.93S FOG
VIROQUA        FAIR      60  60 100 SW6       29.96S
WIS DELLS      CLEAR     58  54  88 CALM      29.95S
$$

...ELSEWHERE IN WISCONSIN...


CITY           SKY/WX    TMP DP  RH WIND       PRES   REMARKS
MILWAUKEE      PTCLDY    61  55  81 SW6       29.95R
MADISON        CLEAR     57  54  89 CALM      29.95S
GREEN BAY      MOCLDY    62  59  90 SW5       29.91S
EAU CLAIRE     CLEAR     62  56  80 CALM      29.92R
BLACK RVR FLS  PTSUNNY   60  60 100 CALM      29.93S
MEDFORD        CLEAR     54  53  99 CALM      29.94S FOG
WAUSAU         CLEAR     60  57  89 E3        29.92S
WIS RAPIDS     PTCLDY    59  56  89 CALM      29.94F
MARSHFIELD     PTCLDY    60  55  83 CALM      29.94S
RICE LAKE      FOG       59  58  96 CALM      29.94S VSB 1/4
$$

...NORTHEAST IOWA...


CITY           SKY/WX    TMP DP  RH WIND       PRES   REMARKS
DECORAH          N/A    N/A N/A N/A MISG        N/A
MASON CITY     CLEAR     61  55  81 W5        29.98S
CHARLES CITY   CLEAR     57  57 100 S3        29.97F
OELWEIN        CLEAR     55  55 100 S3        29.98
$$

...ELSEWHERE IN IOWA...


CITY           SKY/WX    TMP DP  RH WIND       PRES   REMARKS
DES MOINES     PTCLDY    64  55  72 SW3       29.98S
IOWA CITY      CLEAR     57  55  93 CALM      29.98F
FORT DODGE     CLEAR     55  52  88 CALM      29.98S
$$

...NORTHERN ILLINOIS...


CITY           SKY/WX    TMP DP  RH WIND       PRES   REMARKS
CHICAGO-OHARE  CLEAR     61  54  77 W3        29.95S
CHICAGO-MIDWAY CLEAR     63  56  78 CALM      29.96R
MOLINE         CLEAR     58  55  90 CALM      29.97S FOG
ROCKFORD       CLEAR     59  56  89 CALM      29.98R
PEORIA         CLEAR     62  58  86 CALM      29.97S FOG
$$

NOTE: "FAIR" INDICATES FEW OR NO CLOUDS BELOW 12,000 FEET WITH NO
SIGNIFICANT WEATHER AND/OR OBSTRUCTIONS TO VISIBILITY. WIND
SPEEDS ARE IN MILES-PER-HOUR.



USA.gov is the U.S. government's official web portal to all federal, state and local government web resources and services.